Weather History for Taunton, MA

Change the Weather History Date:

Friday, October 7, 2011

  Actual Average Record
Temperature  
Mean Temperature 47 °F -  
Max Temperature 63 °F 65 °F 85 °F (1963)
Min Temperature 32 °F 41 °F 28 °F (1958)
Degree Days  
Heating Degree Days 18    
Moisture  
Dew Point 36 °F    
Average Humidity 73    
Maximum Humidity 100    
Minimum Humidity 30    
Precipitation  
Precipitation 0.00 in - - ()
Sea Level Pressure  
Sea Level Pressure 30.40 in    
Wind  
Wind Speed 1 mph (West)    
Max Wind Speed 5 mph    
Max Gust Speed -    
Visibility 10 miles    
Events      
Averages and records for this station are not official NWS values.
T = Trace of Precipitation, MM = Missing Value Source: NWS Daily Summary

Daily Weather History Graph

Daily Weather History Graph

Search for Another Location

Airport:

Trip Planner

Search our weather history database for the weather conditions in past years. The results will help you decide how hot, cold, wet, or windy it might be!

Date:

Astronomy

Oct. 07, 2011 Rise Set
Actual Time 6:47 AM EDT 6:16 PM EDT
Civil Twilight 6:19 AM EDT 6:43 PM EDT
Nautical Twilight 5:47 AM EDT 7:16 PM EDT
Astronomical Twilight 5:14 AM EDT 7:48 PM EDT
Moon 4:00 PM EDT (10/7) 2:29 AM EDT (10/7)
Length of Visible Light 12h 24m
Length of Day
11h 28m
Waxing Gibbous, 83% of the Moon is Illuminated
Oct 7
Waxing Gibbous
Oct 11
Full
Oct 19
Last Quarter
Oct 26
New
Nov 2
First Quarter

Hourly Weather History & Observations

Time (EDT) Temp. Windchill Dew Point Humidity Pressure Visibility Wind Dir Wind Speed Gust Speed Precip Events Conditions
12:52 AM 36.0 °F - 33.1 °F 89% 30.34 in 10.0 mi Calm Calm - N/A   Clear
1:52 AM 34.0 °F - 34.0 °F 100% 30.35 in 10.0 mi Calm Calm - N/A   Clear
2:52 AM 35.1 °F - 34.0 °F 96% 30.35 in 10.0 mi Calm Calm - N/A   Clear
3:52 AM 36.0 °F - 35.1 °F 97% 30.35 in 10.0 mi Calm Calm - N/A   Clear
4:52 AM 34.0 °F - 33.1 °F 96% 30.36 in 10.0 mi Calm Calm - N/A   Clear
6:52 AM 32.0 °F - 32.0 °F 100% 30.39 in 10.0 mi Calm Calm - N/A   Clear
8:52 AM 45.0 °F 43.5 °F 37.9 °F 76% 30.44 in 10.0 mi WNW 3.5 mph - N/A   Clear
9:52 AM 51.1 °F - 37.0 °F 59% 30.45 in 10.0 mi Calm Calm - N/A   Clear
10:52 AM 55.0 °F - 33.1 °F 43% 30.45 in 10.0 mi Variable 4.6 mph - N/A   Clear
11:52 AM 57.9 °F - 33.1 °F 39% 30.45 in 10.0 mi North 4.6 mph - N/A   Clear
1:52 PM 59.0 °F - 30.9 °F 35% 30.42 in 10.0 mi Calm Calm - N/A   Clear
2:52 PM 61.0 °F - 30.9 °F 32% 30.41 in 10.0 mi Calm Calm - N/A   Clear
3:52 PM 62.1 °F - 30.0 °F 30% 30.40 in 10.0 mi Variable 3.5 mph - N/A   Clear
4:52 PM 61.0 °F - 30.9 °F 32% 30.40 in 10.0 mi Calm Calm - N/A   Clear
5:52 PM 54.0 °F - 44.1 °F 69% 30.41 in 10.0 mi Calm Calm - N/A   Clear
6:52 PM 46.9 °F - 43.0 °F 86% 30.42 in 10.0 mi SSW 3.5 mph - N/A   Clear
7:52 PM 45.0 °F - 43.0 °F 93% 30.43 in 10.0 mi Calm Calm - N/A   Clear
8:52 PM 44.1 °F - 42.1 °F 93% 30.42 in 10.0 mi Calm Calm - N/A   Clear
9:52 PM 43.0 °F - 41.0 °F 93% 30.42 in 10.0 mi Calm Calm - N/A   Clear
10:52 PM 42.1 °F - 41.0 °F 96% 30.42 in 10.0 mi Calm Calm - N/A   Clear
11:52 PM 46.9 °F - 43.0 °F 86% 30.41 in 10.0 mi WSW 3.5 mph - N/A   Clear